Jerez de la Frontera, Spain

4:17 AM CET on December 13, 2017 (GMT +0100)
Jerez

Weather History for LEJR - October, 2011

Change the Weather History Date:

Tuesday, October 11, 2011

  Actual Average Record
Temperature  
Mean Temperature 74 °F -  
Max Temperature 93 °F 71 °F 91 °F (1997)
Min Temperature 55 °F 52 °F 44 °F (2002)
Cooling Degree Days 9    
Growing Degree Days 24 (Base 50)    
Moisture  
Dew Point 49 °F    
Average Humidity 43    
Maximum Humidity 77    
Minimum Humidity 20    
Precipitation  
Precipitation 0.00 in 0.10 in - ()
Sea Level Pressure  
Sea Level Pressure 30.17 in    
Wind  
Wind Speed 3 mph ()    
Max Wind Speed 10 mph    
Max Gust Speed -    
Visibility 19.0 miles    
Events      
Averages and records for this station are not official NWS values.
T = Trace of Precipitation, MM = Missing Value Source: Averaged Metar Reports

Daily Weather History Graph

Daily Weather History Graph

Search for Another Location

Airport or City:

Trip Planner

Search our weather history database for the weather conditions in past years. The results will help you decide how hot, cold, wet, or windy it might be!

Date:

Astronomy

Oct. 11, 2011 Rise Set
Actual Time 8:27 AM CEST 7:53 PM CEST
Civil Twilight 8:01 AM CEST 8:19 PM CEST
Nautical Twilight 7:31 AM CEST 8:49 PM CEST
Astronomical Twilight 7:01 AM CEST 9:19 PM CEST
Moon 7:20 PM CEST (10/11) 7:52 AM CEST (10/11)
Length of Visible Light 12h 18m
Length of Day
11h 26m
Full, 100% of the Moon is Illuminated
Oct 11
Full
Oct 12
Full
Oct 20
Last Quarter
Oct 26
New
Nov 2
First Quarter

Hourly Weather History & Observations

Time (CEST) Temp. Heat Index Dew Point Humidity Pressure Visibility Wind Dir Wind Speed Gust Speed Precip Events Conditions
2:00 AM 68 °F - 54 °F 51% 30.20 in - East 4.6 mph - -  
5:00 AM 68.0 °F - 44.6 °F 43% 30.15 in - East 5.8 mph - N/A   Clear
5:30 AM 62.6 °F - 46.4 °F 55% 30.15 in - Variable 1.2 mph - N/A   Clear
6:00 AM 64.4 °F - 44.6 °F 49% 30.15 in - NNE 4.6 mph - N/A   Clear
6:30 AM 62.6 °F - 46.4 °F 55% 30.15 in - Variable 2.3 mph - N/A   Clear
7:00 AM 60.8 °F - 46.4 °F 59% 30.18 in - Variable 1.2 mph - N/A   Clear
7:30 AM 59.0 °F - 44.6 °F 59% 30.18 in - Variable 1.2 mph - N/A   Clear
8:00 AM 59 °F - 47 °F 56% 30.19 in 25 mi NNW 2.3 mph - -  
8:00 AM 57.2 °F - 46.4 °F 67% 30.18 in - Variable 2.3 mph - N/A   Clear
8:30 AM 55.4 °F - 48.2 °F 77% 30.18 in - Calm Calm - N/A   Clear
9:00 AM 57.2 °F - 46.4 °F 67% 30.18 in - Calm Calm - N/A   Clear
9:30 AM 60.8 °F - 48.2 °F 63% 30.21 in - Calm Calm - N/A   Clear
10:00 AM 64.4 °F - 46.4 °F 52% 30.21 in - Calm Calm - N/A   Clear
10:30 AM 69.8 °F - 48.2 °F 46% 30.21 in - Calm Calm - N/A   Clear
11:00 AM 73.4 °F - 48.2 °F 41% 30.21 in - Calm Calm - N/A   Clear
11:30 AM 77.0 °F - 48.2 °F 36% 30.21 in - Calm Calm - N/A   Clear
12:00 PM 80.6 °F - 48.2 °F 32% 30.21 in - Variable 1.2 mph - N/A   Clear
3:00 PM 91.4 °F - 44.6 °F 20% 30.18 in - SSE 6.9 mph - N/A   Clear
3:30 PM 91.4 °F - 46.4 °F 21% 30.18 in - South 8.1 mph - N/A   Clear
4:00 PM 91.4 °F - 46.4 °F 21% 30.15 in - South 9.2 mph - N/A   Clear
4:30 PM 91.4 °F - 44.6 °F 20% 30.15 in - South 9.2 mph - N/A   Clear
5:00 PM 91.4 °F - 44.6 °F 20% 30.15 in - SSE 10.4 mph - N/A   Clear
5:30 PM 89.6 °F - 44.6 °F 21% 30.15 in - South 8.1 mph - N/A   Clear
6:00 PM 89.6 °F - 50.0 °F 26% 30.15 in - South 8.1 mph - N/A   Clear
6:30 PM 87.8 °F - 50.0 °F 27% 30.15 in - SSW 6.9 mph - N/A   Clear
7:00 PM 87.8 °F 85.7 °F 53.6 °F 31% 30.15 in - SSW 5.8 mph - N/A   Clear
7:30 PM 84.2 °F 82.8 °F 53.6 °F 35% 30.15 in - SW 5.8 mph - N/A   Clear
8:00 PM 80 °F - 57 °F 35% 30.16 in 19 mi SW 4.6 mph - -  
8:00 PM 78.8 °F - 53.6 °F 42% 30.15 in - SW 3.5 mph - N/A   Clear
8:30 PM 78.8 °F - 53.6 °F 42% 30.15 in - Variable 1.2 mph - N/A   Clear
9:00 PM 75.2 °F - 51.8 °F 44% 30.15 in - Calm Calm - N/A   Clear
9:30 PM 73.4 °F - 53.6 °F 50% 30.15 in - Variable 1.2 mph - N/A   Clear
10:00 PM 69.8 °F - 50.0 °F 49% 30.15 in - Calm Calm - N/A   Clear
10:30 PM 68.0 °F - 50.0 °F 52% 30.15 in - Variable 1.2 mph - N/A   Clear
11:00 PM 66.2 °F - 50.0 °F 56% 30.15 in - Variable 1.2 mph - N/A   Clear